• In Hungary
  • List of Countries
  • For 7 days
  • Water Temperature
  • Satellite Maps
  • Weather Map
  • News
  • Weather Widgets
  • user-avatar
    Login

    Hourly Weather La Rioja

    Today, 21 November, Tuesday

    Time Temperature Precipitation Wind Pressure Humidity
    00:00 +27°C° 0.4 mm 7 mps 713 mmHg 37%
    01:00 +26°C° 0.4 mm 6 mps 714 mmHg 47%
    02:00 +23°C° 0.4 mm 5 mps 715 mmHg 56%
    03:00 +22°C° 0.4 mm 4 mps 715 mmHg 61%
    04:00 +22°C° 0.4 mm 3 mps 716 mmHg 65%
    05:00 +21°C° 0.4 mm 2 mps 716 mmHg 70%
    06:00 +21°C° 0.3 mm 2 mps 717 mmHg 65%
    07:00 +22°C° 0.3 mm 3 mps 717 mmHg 61%
    08:00 +24°C° 0.3 mm 3 mps 718 mmHg 56%
    09:00 +25°C° 0 mm 3 mps 718 mmHg 50%
    10:00 +26°C° 0 mm 3 mps 718 mmHg 44%
    11:00 +28°C° 0 mm 3 mps 718 mmHg 38%
    12:00 +29°C° 0 mm 3 mps 717 mmHg 35%
    13:00 +30°C° 0 mm 4 mps 716 mmHg 32%
    14:00 +30°C° 0 mm 4 mps 716 mmHg 29%
    15:00 +32°C° 0 mm 4 mps 715 mmHg 28%
    16:00 +32°C° 0 mm 4 mps 715 mmHg 27%
    17:00 +32°C° 0 mm 4 mps 714 mmHg 27%
    18:00 +30°C° 0 mm 4 mps 715 mmHg 28%
    19:00 +29°C° 0 mm 4 mps 715 mmHg 30%
    20:00 +28°C° 0 mm 3 mps 715 mmHg 31%
    21:00 +27°C° 0 mm 3 mps 716 mmHg 33%
    22:00 +26°C° 0 mm 2 mps 717 mmHg 36%
    23:00 +26°C° 0 mm 2 mps 717 mmHg 38%

    Tomorrow, 22 November, Wednesday

    Time Temperature Precipitation Wind Pressure Humidity
    00:00 +25°C° 0 mm 2 mps 717 mmHg 41%
    01:00 +24°C° 0 mm 2 mps 716 mmHg 44%
    02:00 +23°C° 0 mm 2 mps 716 mmHg 47%
    03:00 +23°C° 0 mm 2 mps 716 mmHg 50%
    04:00 +21°C° 0 mm 2 mps 715 mmHg 53%
    05:00 +21°C° 0 mm 2 mps 715 mmHg 56%
    06:00 +23°C° 0 mm 2 mps 715 mmHg 54%
    07:00 +24°C° 0 mm 2 mps 716 mmHg 51%
    08:00 +25°C° 0 mm 2 mps 716 mmHg 48%
    09:00 +27°C° 0 mm 2 mps 715 mmHg 43%
    10:00 +28°C° 0 mm 3 mps 715 mmHg 38%
    11:00 +30°C° 0 mm 3 mps 715 mmHg 32%
    12:00 +31°C° 0 mm 3 mps 714 mmHg 29%
    13:00 +33°C° 0 mm 3 mps 713 mmHg 26%
    14:00 +35°C° 0 mm 4 mps 712 mmHg 23%
    15:00 +35°C° 0 mm 4 mps 711 mmHg 22%
    16:00 +35°C° 0 mm 4 mps 711 mmHg 21%
    17:00 +35°C° 0 mm 4 mps 710 mmHg 20%
    18:00 +34°C° 0 mm 4 mps 710 mmHg 23%
    19:00 +33°C° 0 mm 4 mps 711 mmHg 26%
    20:00 +30°C° 0 mm 4 mps 711 mmHg 28%
    21:00 +29°C° 0 mm 3 mps 711 mmHg 30%
    22:00 +29°C° 0 mm 3 mps 712 mmHg 32%
    23:00 +28°C° 0 mm 3 mps 712 mmHg 35%

    Day after tomorrow, 23 November, Thursday

    Time Temperature Precipitation Wind Pressure Humidity
    00:00 +27°C° 0 mm 2 mps 712 mmHg 36%
    01:00 +26°C° 0 mm 2 mps 711 mmHg 37%
    02:00 +26°C° 0 mm 2 mps 711 mmHg 39%
    03:00 +25°C° 0 mm 2 mps 711 mmHg 40%
    04:00 +24°C° 0 mm 1 mps 711 mmHg 42%
    05:00 +24°C° 0 mm 1 mps 711 mmHg 43%
    06:00 +25°C° 0 mm 1 mps 711 mmHg 39%
    07:00 +27°C° 0 mm 2 mps 711 mmHg 35%
    08:00 +29°C° 0 mm 2 mps 712 mmHg 31%
    09:00 +31°C° 0 mm 2 mps 712 mmHg 26%
    10:00 +33°C° 0 mm 3 mps 711 mmHg 22%
    11:00 +35°C° 0 mm 3 mps 711 mmHg 18%
    12:00 +36°C° 0 mm 3 mps 711 mmHg 16%
    13:00 +37°C° 0 mm 3 mps 710 mmHg 14%
    14:00 +38°C° 0 mm 4 mps 709 mmHg 13%
    15:00 +40°C° 0 mm 4 mps 709 mmHg 13%
    16:00 +40°C° 0 mm 4 mps 708 mmHg 12%
    17:00 +40°C° 0 mm 4 mps 708 mmHg 12%
    18:00 +37°C° 0 mm 4 mps 708 mmHg 14%
    19:00 +36°C° 0 mm 4 mps 709 mmHg 16%
    20:00 +34°C° 0 mm 3 mps 710 mmHg 18%
    21:00 +33°C° 0 mm 3 mps 710 mmHg 21%
    22:00 +31°C° 0 mm 2 mps 710 mmHg 24%
    23:00 +30°C° 0 mm 2 mps 711 mmHg 27%

    24 November, Friday

    Time Temperature Precipitation Wind Pressure Humidity
    00:00 +29°C° 0 mm 2 mps 711 mmHg 28%
    01:00 +29°C° 0 mm 2 mps 710 mmHg 29%
    02:00 +28°C° 0 mm 2 mps 710 mmHg 30%
    03:00 +27°C° 0 mm 2 mps 710 mmHg 30%
    04:00 +27°C° 0 mm 2 mps 710 mmHg 30%
    05:00 +26°C° 0 mm 3 mps 710 mmHg 31%
    06:00 +27°C° 0 mm 3 mps 711 mmHg 28%
    07:00 +28°C° 0 mm 3 mps 711 mmHg 26%
    08:00 +29°C° 0 mm 4 mps 711 mmHg 24%
    09:00 +32°C° 0 mm 4 mps 711 mmHg 23%
    10:00 +33°C° 0 mm 4 mps 711 mmHg 21%
    11:00 +35°C° 0 mm 4 mps 710 mmHg 20%
    12:00 +36°C° 0 mm 4 mps 709 mmHg 18%
    13:00 +37°C° 0 mm 4 mps 708 mmHg 17%
    14:00 +38°C° 0 mm 4 mps 707 mmHg 15%
    15:00 +38°C° 0 mm 4 mps 707 mmHg 15%
    16:00 +40°C° 0 mm 4 mps 706 mmHg 15%
    17:00 +40°C° 0 mm 4 mps 706 mmHg 14%
    18:00 +38°C° 0.1 mm 4 mps 707 mmHg 17%
    19:00 +36°C° 0.1 mm 5 mps 708 mmHg 20%
    20:00 +35°C° 0.1 mm 5 mps 708 mmHg 23%
    21:00 +33°C° 0.4 mm 5 mps 710 mmHg 33%
    22:00 +29°C° 0.4 mm 6 mps 711 mmHg 43%
    23:00 +27°C° 0.4 mm 6 mps 712 mmHg 52%

    25 November, Saturday

    Time Temperature Precipitation Wind Pressure Humidity
    00:00 +26°C° 0.4 mm 5 mps 712 mmHg 56%
    01:00 +25°C° 0.4 mm 5 mps 713 mmHg 60%
    02:00 +23°C° 0.4 mm 4 mps 713 mmHg 64%
    03:00 +24°C° 0.3 mm 3 mps 714 mmHg 66%
    04:00 +22°C° 0.3 mm 3 mps 714 mmHg 69%
    05:00 +22°C° 0.3 mm 3 mps 715 mmHg 71%
    06:00 +24°C° 0.3 mm 2 mps 715 mmHg 67%
    07:00 +24°C° 0.3 mm 2 mps 716 mmHg 64%
    08:00 +25°C° 0.3 mm 2 mps 717 mmHg 60%
    09:00 +27°C° 0.2 mm 2 mps 716 mmHg 50%
    10:00 +29°C° 0.2 mm 3 mps 716 mmHg 40%
    11:00 +31°C° 0.2 mm 3 mps 716 mmHg 31%
    12:00 +33°C° 0 mm 3 mps 715 mmHg 27%
    13:00 +34°C° 0 mm 3 mps 714 mmHg 23%
    14:00 +35°C° 0 mm 4 mps 714 mmHg 20%
    15:00 +35°C° 0 mm 4 mps 713 mmHg 19%
    16:00 +35°C° 0 mm 4 mps 713 mmHg 19%
    17:00 +35°C° 0 mm 4 mps 712 mmHg 19%
    18:00 +34°C° 0 mm 3 mps 713 mmHg 21%
    19:00 +33°C° 0 mm 3 mps 713 mmHg 23%
    20:00 +31°C° 0 mm 2 mps 714 mmHg 25%
    21:00 +30°C° 0 mm 2 mps 714 mmHg 26%
    22:00 +29°C° 0 mm 2 mps 714 mmHg 28%
    23:00 +28°C° 0 mm 2 mps 714 mmHg 29%

    26 November, Sunday

    Time Temperature Precipitation Wind Pressure Humidity
    00:00 +28°C° 0 mm 2 mps 714 mmHg 30%
    01:00 +27°C° 0 mm 2 mps 713 mmHg 31%
    02:00 +27°C° 0 mm 2 mps 713 mmHg 32%
    03:00 +26°C° 0 mm 1 mps 713 mmHg 34%
    04:00 +26°C° 0 mm 1 mps 712 mmHg 35%
    05:00 +25°C° 0 mm 1 mps 712 mmHg 37%
    06:00 +27°C° 0 mm 1 mps 712 mmHg 33%
    07:00 +28°C° 0 mm 2 mps 712 mmHg 29%
    08:00 +30°C° 0 mm 2 mps 713 mmHg 25%
    09:00 +31°C° 0 mm 2 mps 712 mmHg 23%
    10:00 +34°C° 0 mm 3 mps 711 mmHg 21%
    11:00 +35°C° 0 mm 3 mps 711 mmHg 19%
    12:00 +36°C° 0 mm 3 mps 710 mmHg 17%
    13:00 +37°C° 0 mm 4 mps 709 mmHg 15%
    14:00 +38°C° 0 mm 4 mps 708 mmHg 14%
    15:00 +38°C° 0 mm 4 mps 707 mmHg 14%
    16:00 +39°C° 0 mm 5 mps 706 mmHg 13%
    17:00 +39°C° 0 mm 5 mps 706 mmHg 13%
    18:00 +37°C° 0 mm 4 mps 706 mmHg 16%
    19:00 +35°C° 0 mm 4 mps 706 mmHg 19%
    20:00 +34°C° 0 mm 3 mps 707 mmHg 22%
    21:00 +33°C° 0 mm 3 mps 707 mmHg 24%
    22:00 +31°C° 0 mm 3 mps 707 mmHg 26%
    23:00 +30°C° 0 mm 3 mps 707 mmHg 28%
    Show more